This is the latest recevied weather packets stored in our database for station/object N7CEE. If no packets are shown the sender has not sent any weather packets the latest 10 day(s).
| Time | Temp. | Humidity | Pressure | Rain* | Wind** | Luminosity | Snow |
|---|---|---|---|---|---|---|---|
| 1777508091 | 16.67° C | 17% | 1022.1 hPa | 0 mm | - | 90 W/m² | - |
| 1777507788 | 16.67° C | 17% | 1022.1 hPa | 0 mm | - | 93 W/m² | - |
| 1777507485 | 16.67° C | 17% | 1022.1 hPa | 0 mm | - | 93 W/m² | - |
| 1777507182 | 17.22° C | 17% | 1022.1 hPa | 0 mm | - | 113 W/m² | - |
| 1777506880 | 17.22° C | 17% | 1022.3 hPa | 0 mm | - | 94 W/m² | - |
| 1777506577 | 17.78° C | 18% | 1022 hPa | 0 mm | - | 104 W/m² | - |
| 1777506273 | 17.78° C | 18% | 1022.1 hPa | 0 mm | - | 155 W/m² | - |
| 1777505969 | 17.78° C | 17% | 1022.3 hPa | 0 mm | - | 109 W/m² | - |
| 1777505664 | 17.78° C | 18% | 1022.1 hPa | 0 mm | - | 255 W/m² | - |
| 1777505356 | 17.78° C | 18% | 1022.1 hPa | 0 mm | - | 376 W/m² | - |
| 1777505052 | 18.33° C | 17% | 1022 hPa | 0 mm | - | 392 W/m² | - |
| 1777504750 | 18.33° C | 17% | 1022.1 hPa | 0 mm | - | 360 W/m² | - |
| 1777504447 | 18.33° C | 16% | 1022.4 hPa | 0 mm | - | 401 W/m² | - |
| 1777504143 | 17.78° C | 17% | 1022.3 hPa | 0 mm | - | 386 W/m² | - |
| 1777503838 | 18.89° C | 17% | 1022.3 hPa | 0 mm | - | 50 W/m² | - |
| 1777503535 | 18.33° C | 17% | 1022.4 hPa | 0 mm | - | 474 W/m² | - |
| 1777503231 | 18.33° C | 17% | 1022.5 hPa | 0 mm | - | 462 W/m² | - |
| 1777502928 | 18.89° C | 17% | 1022.9 hPa | 0 mm | - | 504 W/m² | - |
| 1777502625 | 18.89° C | 17% | 1022.6 hPa | 0 mm | - | 520 W/m² | - |
| 1777502322 | 18.89° C | 17% | 1022.8 hPa | 0 mm | - | 535 W/m² | - |
| 1777502019 | 19.44° C | 16% | 1022.9 hPa | 0 mm | - | 550 W/m² | - |
| 1777501715 | 18.33° C | 16% | 1022.6 hPa | 0 mm | - | 568 W/m² | - |
| 1777501413 | 18.89° C | 16% | 1022.9 hPa | 0 mm | - | 581 W/m² | - |
| 1777501110 | 18.33° C | 17% | 1022.9 hPa | 0 mm | - | 593 W/m² | - |
| 1777500809 | 18.89° C | 16% | 1022.8 hPa | 0 mm | - | 609 W/m² | - |
* Rain latest hour (hover to see other rain measurements)
** Current wind speed in m/s (hover to see current wind gust speed)